www.pogodaiklimat.ru

Погода и климат >> Архив погоды >> Россия >> город Севастополь >> Севастополь


АРХИВ ПОГОДЫ в Севастополе

Время (UTC), дата Ветер
(напр.,м/с)
 
Видим.   Явления Облачность Т
(С)
Тd
(С)
f
(%)
Тe
(С)
Тes
(С)
Комфортность P
(гПа)
Po
(гПа)
Тmin
(С)
Tmax
(С)
R
(мм)
R24
(мм)
S
(см)
18 12.10 Ю 2 20 км 2 балла +14.0 +11.9 87 +13 +13 по сезону 1024.7 1024.0 +19.3
21 12.10 В 2 20 км 2 балла +13.0 +10.9 87 +12 +12 по сезону 1023.4 1022.7
00 13.10 В 2 20 км 2 балла +12.0 +10.1 88 +11 +11 по сезону 1023.4 1022.7
03 13.10 В 2 20 км ясно +11.6 +9.7 88 +10 +10 прохладно 1022.0 1021.3 +11.4
06 13.10 В 3 20 км 7 баллов +13.8 +11.3 85 +13 +13 по сезону 1022.0 1021.3 +11.4
09 13.10 ЮЗ 5 20 км 7 баллов +19.8 +15.0 74 +22 +23 комфорт 1022.0 1021.3
12 13.10 ЮЗ 5 20 км 7 баллов +20.0 +14.8 72 +22 +23 комфорт 1020.7 1020.0
15 13.10 ЮЗ 4 20 км 9 баллов +18.0 +15.1 83 +18 +18 тепло 1019.4 1018.7
18 13.10 Ю 3 20 км 4 балла +17.7 +14.8 83 +18 +18 тепло 1019.4 1018.7 +20.3
21 13.10 С 6 20 км 7 баллов +17.6 +14.7 83 +17 +17 тепло 1018.0 1017.3
00 14.10 СВ 3 20 км 9 баллов +14.2 +10.2 77 +13 +13 по сезону 1019.4 1018.7
03 14.10 СВ 4 20 км 1 балл +11.9 +9.6 86 +10 +10 прохладно 1019.4 1018.7 +11.9
06 14.10 В 3 20 км 9 баллов +13.6 +9.8 78 +12 +13 по сезону 1019.4 1018.7 +11.2
09 14.10 С 4 20 км 9 баллов +15.5 +10.9 74 +15 +15 по сезону 1020.7 1020.0
12 14.10 СЗ 6 20 км 7 баллов +16.1 +10.6 70 +15 +15 прохладно 1020.7 1020.0
15 14.10 СЗ 7 20 км 9 баллов +15.4 +11.4 77 +14 +14 по сезону 1020.7 1020.0
18 14.10 СЗ 5 20 км 9 баллов +15.1 +12.2 83 +14 +14 по сезону 1022.0 1021.3 +16.1 0.0
21 14.10 С 6 10 км слабый ливневой дождь 10 баллов +14.1 +11.1 82 +12 +12 по сезону 1022.0 1021.3
00 15.10 С 7 20 км 9 баллов +13.3 +7.3 67 +11 +11 по сезону 1022.0 1021.3
03 15.10 СВ 4 20 км 9 баллов +11.7 +7.2 74 +10 +10 прохладно 1023.4 1022.7 +11.7 0.3
06 15.10 В 2 20 км 9 баллов +12.2 +7.9 75 +11 +11 прохладно 1023.4 1022.7 +11.2 0.3
09 15.10 З 5 20 км 10 баллов +15.3 +11.5 78 +14 +14 по сезону 1023.4 1022.7
12 15.10 З 6 20 км в посл. час ливневой дождь 10 баллов +15.7 +12.8 83 +14 +14 прохладно 1022.0 1021.3
15 15.10 З 6 20 км 10 баллов +16.6 +13.3 81 +16 +16 по сезону 1022.0 1021.3 0.4
18 15.10 З 6 10 км в посл. час ливневой дождь 10 баллов +16.7 +14.3 86 +16 +16 тепло 1020.7 1020.0 +17.0 1
21 15.10 З 5 20 км 10 баллов +17.6 +14.7 83 +17 +17 тепло 1020.7 1020.0
00 16.10 СЗ 6 20 км 10 баллов +17.8 +14.9 83 +17 +17 тепло 1019.4 1018.7
06 16.10 СВ 5 20 км 7 баллов +12.3 +8.9 80 +10 +10 прохладно 1023.4 1022.7 +12.2 0.0
09 16.10 СЗ 6 20 км 4 балла +14.3 +8.7 69 +12 +14 прохладно 1026.0 1025.3
12 16.10 СЗ 6 20 км 4 балла +16.3 +8.3 59 +15 +16 прохладно 1026.0 1025.3
15 16.10 СЗ 6 20 км 2 балла +15.8 +11.0 73 +14 +14 по сезону 1026.0 1025.3
18 16.10 СЗ 4 20 км 2 балла +15.6 +9.9 69 +15 +15 тепло 1027.4 1026.7 +16.6
21 16.10 В 2 20 км ясно +11.1 +9.4 89 +10 +10 прохладно 1027.4 1026.7
00 17.10 В 3 20 км ясно +10.2 +8.5 89 +8 +8 прохладно 1027.4 1026.7
03 17.10 В 2 20 км ясно +9.9 +8.3 90 +8 +8 прохладно 1027.4 1026.7 +9.9
06 17.10 В 3 20 км 2 балла +12.4 +11.1 92 +11 +12 прохладно 1027.4 1026.7 +9.6
09 17.10 З 7 20 км 2 балла +18.7 +15.4 81 +19 +20 тепло 1026.0 1025.3
12 17.10 З 6 20 км 9 баллов +19.0 +16.2 84 +20 +20 тепло 1026.0 1025.3
15 17.10 ЮЗ 4 20 км 7 баллов +17.8 +15.2 85 +18 +18 тепло 1024.7 1024.0
18 17.10 штиль 0 10 км ясно +15.0 +13.0 88 +15 +15 тепло 1024.7 1024.0 +20.0
21 17.10 Ю 1 10 км ясно +12.8 +11.4 91 +13 +13 по сезону 1024.7 1024.0
00 18.10 ЮВ 1 10 км ясно +11.2 +10.3 94 +11 +11 по сезону 1024.7 1024.0
03 18.10 В 2 20 км ясно +11.0 +10.2 95 +10 +10 прохладно 1023.4 1022.7 +11.0
06 18.10 В 2 20 км ясно +14.2 +12.1 87 +14 +15 по сезону 1024.7 1024.0 +11.0
09 18.10 З 3 10 км ясно +16.5 +13.8 84 +16 +22 по сезону 1024.7 1024.0
12 18.10 С 3 10 км ясно +17.6 +15.0 85 +18 +21 тепло 1023.4 1022.7
15 18.10 ЮВ 2 10 км ясно +18.6 +15.7 83 +20 +20 тепло 1022.0 1021.3
18 18.10 ЮВ 1 10 км ясно +15.3 +13.1 87 +16 +16 тепло 1022.0 1021.3 +19.9
21 18.10 В 1 10 км ясно +13.0 +11.6 91 +13 +13 по сезону 1022.0 1021.3
00 19.10 В 4 10 км ясно +12.3 +11.2 93 +10 +10 по сезону 1022.0 1021.3
03 19.10 В 3 20 км 7 баллов +11.9 +10.5 91 +10 +10 по сезону 1022.0 1021.3 +11.9
06 19.10 В 3 10 км 9 баллов +13.6 +12.3 92 +12 +12 по сезону 1022.0 1021.3 +11.6
09 19.10 СЗ 2 10 км 6 баллов +16.6 +13.9 84 +17 +19 тепло 1022.0 1021.3
12 19.10 З 2 20 км ясно +20.9 +15.9 73 +25 +29 комфорт 1020.7 1020.0
15 19.10 Ю 4 20 км 1 балл +16.2 +13.5 84 +15 +15 по сезону 1020.7 1020.0

 

Местоположение метеостанции Севастополь (город Севастополь, Россия): широта 44.62 долгота 33.53 высота над уровнем моря 6 м.

В архиве по умолчанию представлена погода в Севастополе за последнюю неделю. Архивные данные за месяц целиком и за предыдущие месяцы, начиная с января 2011 года, Вы можете получить, выбрав интересующий диапазон дат из раскрывающегося списка и нажав кнопку "Ввод!".

Внимание! Время в таблицах - всемирное. Для получения местного времени необходимо прибавить поправку, которая в Севастополе равна 3 ч.

Смотрите также архив погоды в соседних городах и на ближайших метеорологических станциях:

Погода в Херсонесском Маяке (город Севастополь, Россия) (13 км)
Погода в Ай-Петри (Крым, Россия) (47 км)
Погода в Ялте (Крым, Россия) (53 км)
Погода в Симферополе (Крым, Россия) (57 км)
Погода в Никитском саду (Крым, Россия) (58 км)
Погода в Евпатории (Крым, Россия) (64 км)
Погода в Алуште (Крым, Россия) (69 км)
Погода в Белогорске (Крым, Россия) (97 км)
Погода в Клепинино (Крым, Россия) (113 км)
Погода в Черноморском (Крым, Россия) (119 км)

Пояснения к столбцам:

Ветер - указаны скорость ветра в м/с - средняя за 10 мин, порывы в срок и между сроками (в фигурных скобках) и направление, откуда дует ветер: С - северный, СВ - северо-восточный, В - восточный, ЮВ - юго-восточный, Ю - южный, ЮЗ - юго-западный, З - западный, СЗ - северо-западный.
Видимость - горизонтальная дальность видимости в метрах или километрах. При видимости от 1 до 10 км при отсутствии осадков обычно наблюдается дымка, при ухудшении видимости до 1 км и менее - туман. В сухую погоду видимость может ухудшаться дымом, пылью или мглою.
Явления - указаны атмосферные явления, наблюдавшиеся в срок или в последний час перед сроком; фигурными скобками обозначены явления, наблюдавшиеся между сроками (за 1-3 часа до срока); квадратными скобками обозначены град или гололедные отложения с указанием их диаметра в мм.
Облачность - указаны через наклонную черту общая и нижняя облачность в баллах и высота нижней границы облаков в метрах; квадратными скобками обозначены формы облаков: Ci - перистые, Cs - перисто-слоистые, Cc - перисто-кучевые, Ac - высококучевые, As - высокослоистые, Sc - слоисто-кучевые, Ns - слоисто-дождевые, Cu - кучевые, Cb - кучево-дождевые. Подробнее классификацию облаков см. в Атласе облаков (PDF).
T - Температура воздуха - температура, измеренная на высоте 2 м над землей.
Td - Температура точки росы - температура, при понижении до которой содержащийся в воздухе водяной пар достигнет насыщения.
f - Относительная влажность воздуха - влажноcть воздуха, измеренная на высоте 2 м над землей.
Te - Эффективная температура - температура, которую ощущает одетый по сезону человек в тени. Характеристика душности погоды. При расчете учитывается влияние влажности воздуха и скорости ветра на теплоощущения человека.
Tes - Эффективная температура на солнце - температура, которую ощущает человек, с поправкой на солнечный нагрев. Характеристика знойности погоды. Зависит от высоты солнца над горизонтом, облачности и скорости ветра. Ночью, в пасмурную погоду, а также при ветре 12 м/с и более поправка равна нулю.
P - Атмосферное давление - приведенное к уровню моря атмосферное давление.
Po - Атмосферное давление - измеренное на уровне метеостанции атмосферное давление.
Tmin - Минимальная температура - минимум температуры воздуха на высоте 2 м над землей.
Tmax - Максимальная температура - максимум температуры воздуха на высоте 2 м над землей.
R - Количество осадков - Количество выпавших осадков за период времени, мм. При наведении курсора мыши на число - период времени, за который выпало указанное количество осадков.
R24 - Количество осадков - Количество выпавших осадков за 24 часа, мм.
S - Снежный покров - Высота снежного покрова, см. При наведении курсора мыши на число - состояние снежного покрова и степень покрытия местности в баллах.